owner,sensor,date,latitude,longitude,vertical_datum,sea_water_practical_salinity,qcFlag 
SCCF RECON,ioos:station:SCCF:11:1,2012-12-01T00:00:00Z,26.4679,-82.0631,2.03,30.85,1111122 
SCCF RECON,ioos:station:SCCF:11:1,2012-12-01T01:00:00Z,26.4679,-82.0631,2.038,31.05,1111122 
SCCF RECON,ioos:station:SCCF:11:1,2012-12-01T02:00:00Z,26.4679,-82.0631,2.107,31.31,1111122 
SCCF RECON,ioos:station:SCCF:11:1,2012-12-01T03:00:00Z,26.4679,-82.0631,2.211,31.17,1111122 
SCCF RECON,ioos:station:SCCF:11:1,2012-12-01T04:00:00Z,26.4679,-82.0631,2.31,31.72,1111122 
SCCF RECON,ioos:station:SCCF:11:1,2012-12-01T05:00:00Z,26.4679,-82.0631,2.38,31.47,1111122 
SCCF RECON,ioos:station:SCCF:11:1,2012-12-01T06:00:00Z,26.4679,-82.0631,2.38,31.58,1111122 
SCCF RECON,ioos:station:SCCF:11:1,2012-12-01T07:00:00Z,26.4679,-82.0631,2.361,31.41,1111122 
SCCF RECON,ioos:station:SCCF:11:1,2012-12-01T08:00:00Z,26.4679,-82.0631,2.3,31.26,1111122 
SCCF RECON,ioos:station:SCCF:11:1,2012-12-01T09:00:00Z,26.4679,-82.0631,2.179,31.21,1111122 
SCCF RECON,ioos:station:SCCF:11:1,2012-12-01T10:00:00Z,26.4679,-82.0631,2.04,31.45,1111122 
SCCF RECON,ioos:station:SCCF:11:1,2012-12-01T11:00:00Z,26.4679,-82.0631,1.93,31.49,1111122 
SCCF RECON,ioos:station:SCCF:11:1,2012-12-01T12:00:00Z,26.4679,-82.0631,1.814,31.58,1111122 
SCCF RECON,ioos:station:SCCF:11:1,2012-12-01T13:00:00Z,26.4679,-82.0631,1.71,31.65,1111122 
SCCF RECON,ioos:station:SCCF:11:1,2012-12-01T14:00:00Z,26.4679,-82.0631,1.651,31.68,1111122 
SCCF RECON,ioos:station:SCCF:11:1,2012-12-01T15:00:00Z,26.4679,-82.0631,1.72,31.51,1111122 
SCCF RECON,ioos:station:SCCF:11:1,2012-12-01T16:00:00Z,26.4679,-82.0631,1.891,31.3,1111122 
SCCF RECON,ioos:station:SCCF:11:1,2012-12-01T17:00:00Z,26.4679,-82.0631,2.03,30.16,1111122 
SCCF RECON,ioos:station:SCCF:11:1,2012-12-01T18:00:00Z,26.4679,-82.0631,2.098,30.45,1111122 
SCCF RECON,ioos:station:SCCF:11:1,2012-12-01T19:00:00Z,26.4679,-82.0631,2.161,30.81,1111122 
SCCF RECON,ioos:station:SCCF:11:1,2012-12-01T20:00:00Z,26.4679,-82.0631,2.2,30.89,1111122 
SCCF RECON,ioos:station:SCCF:11:1,2012-12-01T21:00:00Z,26.4679,-82.0631,2.21,30.83,1111122 
SCCF RECON,ioos:station:SCCF:11:1,2012-12-01T22:00:00Z,26.4679,-82.0631,2.17,30.85,1111122 
SCCF RECON,ioos:station:SCCF:11:1,2012-12-01T23:00:00Z,26.4679,-82.0631,2.108,30.78,1111122 
SCCF RECON,ioos:station:SCCF:11:1,2012-12-02T00:00:00Z,26.4679,-82.0631,2.046,30.74,1111122 
SCCF RECON,ioos:station:SCCF:11:1,2012-12-02T01:00:00Z,26.4679,-82.0631,2.03,30.81,1111122 
SCCF RECON,ioos:station:SCCF:11:1,2012-12-02T02:00:00Z,26.4679,-82.0631,2.07,30.84,1111122 
SCCF RECON,ioos:station:SCCF:11:1,2012-12-02T03:00:00Z,26.4679,-82.0631,2.142,30.96,1111122 
SCCF RECON,ioos:station:SCCF:11:1,2012-12-02T04:00:00Z,26.4679,-82.0631,2.23,31.08,1111122 
SCCF RECON,ioos:station:SCCF:11:1,2012-12-02T05:00:00Z,26.4679,-82.0631,2.31,31.2,1111122 
SCCF RECON,ioos:station:SCCF:11:1,2012-12-02T06:00:00Z,26.4679,-82.0631,2.35,31.38,1111122 
SCCF RECON,ioos:station:SCCF:11:1,2012-12-02T07:00:00Z,26.4679,-82.0631,2.35,31.36,1111122 
SCCF RECON,ioos:station:SCCF:11:1,2012-12-02T08:00:00Z,26.4679,-82.0631,2.312,31.32,1111122 
SCCF RECON,ioos:station:SCCF:11:1,2012-12-02T09:00:00Z,26.4679,-82.0631,2.236,30.99,1111122 
SCCF RECON,ioos:station:SCCF:11:1,2012-12-02T10:00:00Z,26.4679,-82.0631,2.137,31.02,1111122 
SCCF RECON,ioos:station:SCCF:11:1,2012-12-02T11:00:00Z,26.4679,-82.0631,2.01,31.18,1111122 
SCCF RECON,ioos:station:SCCF:11:1,2012-12-02T12:00:00Z,26.4679,-82.0631,1.888,31.27,1111122 
SCCF RECON,ioos:station:SCCF:11:1,2012-12-02T13:00:00Z,26.4679,-82.0631,1.76,31.34,1111122 
SCCF RECON,ioos:station:SCCF:11:1,2012-12-02T14:00:00Z,26.4679,-82.0631,1.68,31.4,1111122 
SCCF RECON,ioos:station:SCCF:11:1,2012-12-02T15:00:00Z,26.4679,-82.0631,1.66,31.0,1111122 
SCCF RECON,ioos:station:SCCF:11:1,2012-12-02T16:00:00Z,26.4679,-82.0631,1.75,31.22,1111122 
SCCF RECON,ioos:station:SCCF:11:1,2012-12-02T17:00:00Z,26.4679,-82.0631,1.91,30.93,1111122 
SCCF RECON,ioos:station:SCCF:11:1,2012-12-02T18:00:00Z,26.4679,-82.0631,2.03,29.99,1111122 
SCCF RECON,ioos:station:SCCF:11:1,2012-12-02T19:00:00Z,26.4679,-82.0631,2.117,30.55,1111122 
SCCF RECON,ioos:station:SCCF:11:1,2012-12-02T20:00:00Z,26.4679,-82.0631,2.173,30.69,1111122 
SCCF RECON,ioos:station:SCCF:11:1,2012-12-02T21:00:00Z,26.4679,-82.0631,2.22,30.71,1111122 
SCCF RECON,ioos:station:SCCF:11:1,2012-12-02T22:00:00Z,26.4679,-82.0631,2.208,30.82,1111122 
SCCF RECON,ioos:station:SCCF:11:1,2012-12-02T23:00:00Z,26.4679,-82.0631,2.16,30.76,1111122 
SCCF RECON,ioos:station:SCCF:11:1,2012-12-03T00:00:00Z,26.4679,-82.0631,2.12,30.63,1111122 
SCCF RECON,ioos:station:SCCF:11:1,2012-12-03T01:00:00Z,26.4679,-82.0631,2.073,30.53,1111122 
SCCF RECON,ioos:station:SCCF:11:1,2012-12-03T02:00:00Z,26.4679,-82.0631,2.061,30.59,1111122 
SCCF RECON,ioos:station:SCCF:11:1,2012-12-03T03:00:00Z,26.4679,-82.0631,2.08,30.82,1111122 
SCCF RECON,ioos:station:SCCF:11:1,2012-12-03T04:00:00Z,26.4679,-82.0631,2.152,30.68,1111122 
SCCF RECON,ioos:station:SCCF:11:1,2012-12-03T05:00:00Z,26.4679,-82.0631,2.237,31.06,1111122 
SCCF RECON,ioos:station:SCCF:11:1,2012-12-03T06:00:00Z,26.4679,-82.0631,2.292,31.45,1111122 
SCCF RECON,ioos:station:SCCF:11:1,2012-12-03T07:00:00Z,26.4679,-82.0631,2.31,31.47,1111122 
SCCF RECON,ioos:station:SCCF:11:1,2012-12-03T08:00:00Z,26.4679,-82.0631,2.305,31.45,1111122 
SCCF RECON,ioos:station:SCCF:11:1,2012-12-03T09:00:00Z,26.4679,-82.0631,2.27,31.33,1111122 
SCCF RECON,ioos:station:SCCF:11:1,2012-12-03T10:00:00Z,26.4679,-82.0631,2.187,30.86,1111122 
SCCF RECON,ioos:station:SCCF:11:1,2012-12-03T11:00:00Z,26.4679,-82.0631,2.087,30.96,1111122 
SCCF RECON,ioos:station:SCCF:11:1,2012-12-03T12:00:00Z,26.4679,-82.0631,1.95,31.08,1111122 
SCCF RECON,ioos:station:SCCF:11:1,2012-12-03T13:00:00Z,26.4679,-82.0631,1.83,31.17,1111122 
SCCF RECON,ioos:station:SCCF:11:1,2012-12-03T14:00:00Z,26.4679,-82.0631,1.735,31.23,1111122 
SCCF RECON,ioos:station:SCCF:11:1,2012-12-03T15:00:00Z,26.4679,-82.0631,1.67,31.31,1111122 
SCCF RECON,ioos:station:SCCF:11:1,2012-12-03T16:00:00Z,26.4679,-82.0631,1.711,31.14,1111122 
SCCF RECON,ioos:station:SCCF:11:1,2012-12-03T17:00:00Z,26.4679,-82.0631,1.849,31.17,1111122 
SCCF RECON,ioos:station:SCCF:11:1,2012-12-03T18:00:00Z,26.4679,-82.0631,1.98,30.22,1111122 
SCCF RECON,ioos:station:SCCF:11:1,2012-12-03T19:00:00Z,26.4679,-82.0631,2.081,30.07,1111122 
SCCF RECON,ioos:station:SCCF:11:1,2012-12-03T20:00:00Z,26.4679,-82.0631,2.16,30.52,1111122 
SCCF RECON,ioos:station:SCCF:11:1,2012-12-03T21:00:00Z,26.4679,-82.0631,2.209,30.78,1111122 
SCCF RECON,ioos:station:SCCF:11:1,2012-12-03T22:00:00Z,26.4679,-82.0631,2.232,30.87,1111122 
SCCF RECON,ioos:station:SCCF:11:1,2012-12-03T23:00:00Z,26.4679,-82.0631,2.22,30.88,1111122 
SCCF RECON,ioos:station:SCCF:11:1,2012-12-04T00:00:00Z,26.4679,-82.0631,2.17,30.97,1111122 
SCCF RECON,ioos:station:SCCF:11:1,2012-12-04T01:00:00Z,26.4679,-82.0631,2.11,30.56,1111122 
SCCF RECON,ioos:station:SCCF:11:1,2012-12-04T02:00:00Z,26.4679,-82.0631,2.07,30.62,1111122 
SCCF RECON,ioos:station:SCCF:11:1,2012-12-04T03:00:00Z,26.4679,-82.0631,2.07,30.64,1111122 
SCCF RECON,ioos:station:SCCF:11:1,2012-12-04T04:00:00Z,26.4679,-82.0631,2.098,30.88,1111122 
SCCF RECON,ioos:station:SCCF:11:1,2012-12-04T05:00:00Z,26.4679,-82.0631,2.172,30.8,1111122 
SCCF RECON,ioos:station:SCCF:11:1,2012-12-04T06:00:00Z,26.4679,-82.0631,2.244,31.22,1111122 
SCCF RECON,ioos:station:SCCF:11:1,2012-12-04T07:00:00Z,26.4679,-82.0631,2.296,31.69,1111122 
SCCF RECON,ioos:station:SCCF:11:1,2012-12-04T08:00:00Z,26.4679,-82.0631,2.316,31.99,1111122 
SCCF RECON,ioos:station:SCCF:11:1,2012-12-04T09:00:00Z,26.4679,-82.0631,2.31,32.02,1111122 
SCCF RECON,ioos:station:SCCF:11:1,2012-12-04T10:00:00Z,26.4679,-82.0631,2.27,31.96,1111122 
SCCF RECON,ioos:station:SCCF:11:1,2012-12-04T11:00:00Z,26.4679,-82.0631,2.21,31.19,1111122 
SCCF RECON,ioos:station:SCCF:11:1,2012-12-04T12:00:00Z,26.4679,-82.0631,2.09,31.01,1111122 
SCCF RECON,ioos:station:SCCF:11:1,2012-12-04T13:00:00Z,26.4679,-82.0631,1.983,31.07,1111122 
SCCF RECON,ioos:station:SCCF:11:1,2012-12-04T14:00:00Z,26.4679,-82.0631,1.885,31.12,1111122 
SCCF RECON,ioos:station:SCCF:11:1,2012-12-04T15:00:00Z,26.4679,-82.0631,1.81,31.18,1111122 
SCCF RECON,ioos:station:SCCF:11:1,2012-12-04T16:00:00Z,26.4679,-82.0631,1.78,31.23,1111122 
SCCF RECON,ioos:station:SCCF:11:1,2012-12-04T17:00:00Z,26.4679,-82.0631,1.84,31.26,1111122 
SCCF RECON,ioos:station:SCCF:11:1,2012-12-04T18:00:00Z,26.4679,-82.0631,1.94,31.19,1111122 
SCCF RECON,ioos:station:SCCF:11:1,2012-12-04T19:00:00Z,26.4679,-82.0631,2.04,30.54,1111122 
SCCF RECON,ioos:station:SCCF:11:1,2012-12-04T20:00:00Z,26.4679,-82.0631,2.12,29.77,1111122 
SCCF RECON,ioos:station:SCCF:11:1,2012-12-04T21:00:00Z,26.4679,-82.0631,2.2,30.22,1111122 
SCCF RECON,ioos:station:SCCF:11:1,2012-12-04T22:00:00Z,26.4679,-82.0631,2.254,30.58,1111122 
SCCF RECON,ioos:station:SCCF:11:1,2012-12-04T23:00:00Z,26.4679,-82.0631,2.25,30.71,1111122 
SCCF RECON,ioos:station:SCCF:11:1,2012-12-05T00:00:00Z,26.4679,-82.0631,2.2,30.46,1111122 
SCCF RECON,ioos:station:SCCF:11:1,2012-12-05T01:00:00Z,26.4679,-82.0631,2.138,30.4,1111122 
SCCF RECON,ioos:station:SCCF:11:1,2012-12-05T02:00:00Z,26.4679,-82.0631,2.06,30.57,1111122 
SCCF RECON,ioos:station:SCCF:11:1,2012-12-05T03:00:00Z,26.4679,-82.0631,2.0,30.76,1111122 
SCCF RECON,ioos:station:SCCF:11:1,2012-12-05T04:00:00Z,26.4679,-82.0631,1.97,30.86,1111122 
SCCF RECON,ioos:station:SCCF:11:1,2012-12-05T05:00:00Z,26.4679,-82.0631,2.0,30.7,1111122 
SCCF RECON,ioos:station:SCCF:11:1,2012-12-05T06:00:00Z,26.4679,-82.0631,2.053,30.77,1111122 
SCCF RECON,ioos:station:SCCF:11:1,2012-12-05T07:00:00Z,26.4679,-82.0631,2.108,30.92,1111122 
SCCF RECON,ioos:station:SCCF:11:1,2012-12-05T08:00:00Z,26.4679,-82.0631,2.17,31.09,1111122 
SCCF RECON,ioos:station:SCCF:11:1,2012-12-05T09:00:00Z,26.4679,-82.0631,2.21,30.97,1111122 
SCCF RECON,ioos:station:SCCF:11:1,2012-12-05T10:00:00Z,26.4679,-82.0631,2.2,31.03,1111122 
SCCF RECON,ioos:station:SCCF:11:1,2012-12-05T11:00:00Z,26.4679,-82.0631,2.15,30.99,1111122 
SCCF RECON,ioos:station:SCCF:11:1,2012-12-05T12:00:00Z,26.4679,-82.0631,2.08,30.8,1111122 
SCCF RECON,ioos:station:SCCF:11:1,2012-12-05T13:00:00Z,26.4679,-82.0631,1.98,30.85,1111122 
SCCF RECON,ioos:station:SCCF:11:1,2012-12-05T14:00:00Z,26.4679,-82.0631,1.886,31.01,1111122 
SCCF RECON,ioos:station:SCCF:11:1,2012-12-05T15:00:00Z,26.4679,-82.0631,1.81,31.05,1111122 
SCCF RECON,ioos:station:SCCF:11:1,2012-12-05T16:00:00Z,26.4679,-82.0631,1.73,31.05,1111122 
SCCF RECON,ioos:station:SCCF:11:1,2012-12-05T17:00:00Z,26.4679,-82.0631,1.71,30.84,1111122 
SCCF RECON,ioos:station:SCCF:11:1,2012-12-05T18:00:00Z,26.4679,-82.0631,1.78,31.11,1111122 
SCCF RECON,ioos:station:SCCF:11:1,2012-12-05T19:00:00Z,26.4679,-82.0631,1.92,30.97,1111122 
SCCF RECON,ioos:station:SCCF:11:1,2012-12-05T20:00:00Z,26.4679,-82.0631,2.02,29.67,1111122 
SCCF RECON,ioos:station:SCCF:11:1,2012-12-05T21:00:00Z,26.4679,-82.0631,2.1,29.84,1111122 
SCCF RECON,ioos:station:SCCF:11:1,2012-12-05T22:00:00Z,26.4679,-82.0631,2.166,30.55,1111122 
SCCF RECON,ioos:station:SCCF:11:1,2012-12-05T23:00:00Z,26.4679,-82.0631,2.2,30.44,1111122 
SCCF RECON,ioos:station:SCCF:11:1,2012-12-06T00:00:00Z,26.4679,-82.0631,2.2,30.72,1111122 
SCCF RECON,ioos:station:SCCF:11:1,2012-12-06T01:00:00Z,26.4679,-82.0631,2.13,30.16,1111122 
SCCF RECON,ioos:station:SCCF:11:1,2012-12-06T02:00:00Z,26.4679,-82.0631,2.07,30.33,1111122 
SCCF RECON,ioos:station:SCCF:11:1,2012-12-06T03:00:00Z,26.4679,-82.0631,2.02,30.38,1111122 
SCCF RECON,ioos:station:SCCF:11:1,2012-12-06T04:00:00Z,26.4679,-82.0631,1.96,30.47,1111122 
SCCF RECON,ioos:station:SCCF:11:1,2012-12-06T05:00:00Z,26.4679,-82.0631,1.93,30.63,1111122 
SCCF RECON,ioos:station:SCCF:11:1,2012-12-06T06:00:00Z,26.4679,-82.0631,1.93,30.36,1111122 
SCCF RECON,ioos:station:SCCF:11:1,2012-12-06T07:00:00Z,26.4679,-82.0631,1.95,30.38,1111122 
SCCF RECON,ioos:station:SCCF:11:1,2012-12-06T08:00:00Z,26.4679,-82.0631,2.0,30.47,1111122 
SCCF RECON,ioos:station:SCCF:11:1,2012-12-06T09:00:00Z,26.4679,-82.0631,2.05,30.52,1111122 
SCCF RECON,ioos:station:SCCF:11:1,2012-12-06T10:00:00Z,26.4679,-82.0631,2.09,30.62,1111122 
SCCF RECON,ioos:station:SCCF:11:1,2012-12-06T11:00:00Z,26.4679,-82.0631,2.12,30.67,1111122 
SCCF RECON,ioos:station:SCCF:11:1,2012-12-06T12:00:00Z,26.4679,-82.0631,2.13,29.98,1111122 
SCCF RECON,ioos:station:SCCF:11:1,2012-12-06T13:00:00Z,26.4679,-82.0631,2.064,30.36,1111122 
SCCF RECON,ioos:station:SCCF:11:1,2012-12-06T14:00:00Z,26.4679,-82.0631,1.97,30.55,1111122 
SCCF RECON,ioos:station:SCCF:11:1,2012-12-06T15:00:00Z,26.4679,-82.0631,1.877,30.78,1111122 
SCCF RECON,ioos:station:SCCF:11:1,2012-12-06T16:00:00Z,26.4679,-82.0631,1.81,30.83,1111122 
SCCF RECON,ioos:station:SCCF:11:1,2012-12-06T17:00:00Z,26.4679,-82.0631,1.78,30.86,1111122 
SCCF RECON,ioos:station:SCCF:11:1,2012-12-06T18:00:00Z,26.4679,-82.0631,1.755,30.37,1111122 
SCCF RECON,ioos:station:SCCF:11:1,2012-12-06T19:00:00Z,26.4679,-82.0631,1.833,30.86,1111122 
SCCF RECON,ioos:station:SCCF:11:1,2012-12-06T20:00:00Z,26.4679,-82.0631,1.964,30.56,1111122 
SCCF RECON,ioos:station:SCCF:11:1,2012-12-06T21:00:00Z,26.4679,-82.0631,2.089,30.27,1111122 
SCCF RECON,ioos:station:SCCF:11:1,2012-12-06T22:00:00Z,26.4679,-82.0631,2.18,30.15,1111122 
SCCF RECON,ioos:station:SCCF:11:1,2012-12-06T23:00:00Z,26.4679,-82.0631,2.24,30.36,1111122 
SCCF RECON,ioos:station:SCCF:11:1,2012-12-07T00:00:00Z,26.4679,-82.0631,2.26,30.78,1111122 
SCCF RECON,ioos:station:SCCF:11:1,2012-12-07T01:00:00Z,26.4679,-82.0631,2.21,30.38,1111122 
SCCF RECON,ioos:station:SCCF:11:1,2012-12-07T02:00:00Z,26.4679,-82.0631,2.14,30.32,1111122 
SCCF RECON,ioos:station:SCCF:11:1,2012-12-07T03:00:00Z,26.4679,-82.0631,2.06,30.42,1111122 
SCCF RECON,ioos:station:SCCF:11:1,2012-12-07T04:00:00Z,26.4679,-82.0631,1.99,30.63,1111122 
SCCF RECON,ioos:station:SCCF:11:1,2012-12-07T05:00:00Z,26.4679,-82.0631,1.91,30.7,1111122 
SCCF RECON,ioos:station:SCCF:11:1,2012-12-07T06:00:00Z,26.4679,-82.0631,1.84,30.76,1111122 
SCCF RECON,ioos:station:SCCF:11:1,2012-12-07T07:00:00Z,26.4679,-82.0631,1.83,30.66,1111122 
SCCF RECON,ioos:station:SCCF:11:1,2012-12-07T08:00:00Z,26.4679,-82.0631,1.85,30.53,1111122 
SCCF RECON,ioos:station:SCCF:11:1,2012-12-07T09:00:00Z,26.4679,-82.0631,1.93,30.85,1111122 
SCCF RECON,ioos:station:SCCF:11:1,2012-12-07T10:00:00Z,26.4679,-82.0631,2.02,30.77,1111122 
SCCF RECON,ioos:station:SCCF:11:1,2012-12-07T11:00:00Z,26.4679,-82.0631,2.07,30.86,1111122 
SCCF RECON,ioos:station:SCCF:11:1,2012-12-07T12:00:00Z,26.4679,-82.0631,2.11,30.54,1111122 
SCCF RECON,ioos:station:SCCF:11:1,2012-12-07T13:00:00Z,26.4679,-82.0631,2.129,30.7,1111122 
SCCF RECON,ioos:station:SCCF:11:1,2012-12-07T14:00:00Z,26.4679,-82.0631,2.09,30.46,1111122 
SCCF RECON,ioos:station:SCCF:11:1,2012-12-07T15:00:00Z,26.4679,-82.0631,2.01,30.53,1111122 
SCCF RECON,ioos:station:SCCF:11:1,2012-12-07T16:00:00Z,26.4679,-82.0631,1.93,30.65,1111122 
SCCF RECON,ioos:station:SCCF:11:1,2012-12-07T17:00:00Z,26.4679,-82.0631,1.863,30.77,1111122 
SCCF RECON,ioos:station:SCCF:11:1,2012-12-07T18:00:00Z,26.4679,-82.0631,1.81,30.72,1111122 
SCCF RECON,ioos:station:SCCF:11:1,2012-12-07T19:00:00Z,26.4679,-82.0631,1.8,30.56,1111122 
SCCF RECON,ioos:station:SCCF:11:1,2012-12-07T20:00:00Z,26.4679,-82.0631,1.862,30.6,1111122 
SCCF RECON,ioos:station:SCCF:11:1,2012-12-07T21:00:00Z,26.4679,-82.0631,2.01,30.91,1111122 
SCCF RECON,ioos:station:SCCF:11:1,2012-12-07T22:00:00Z,26.4679,-82.0631,2.12,30.77,1111122 
SCCF RECON,ioos:station:SCCF:11:1,2012-12-07T23:00:00Z,26.4679,-82.0631,2.19,30.75,1111122 
SCCF RECON,ioos:station:SCCF:11:1,2012-12-08T00:00:00Z,26.4679,-82.0631,2.259,30.83,1111122 
SCCF RECON,ioos:station:SCCF:11:1,2012-12-08T01:00:00Z,26.4679,-82.0631,2.27,31.17,1111122 
SCCF RECON,ioos:station:SCCF:11:1,2012-12-08T02:00:00Z,26.4679,-82.0631,2.25,30.62,1111122 
SCCF RECON,ioos:station:SCCF:11:1,2012-12-08T03:00:00Z,26.4679,-82.0631,2.15,30.59,1111122 
SCCF RECON,ioos:station:SCCF:11:1,2012-12-08T04:00:00Z,26.4679,-82.0631,2.04,30.59,1111122 
SCCF RECON,ioos:station:SCCF:11:1,2012-12-08T05:00:00Z,26.4679,-82.0631,1.94,30.67,1111122 
SCCF RECON,ioos:station:SCCF:11:1,2012-12-08T06:00:00Z,26.4679,-82.0631,1.82,30.74,1111122 
SCCF RECON,ioos:station:SCCF:11:1,2012-12-08T07:00:00Z,26.4679,-82.0631,1.73,30.77,1111122 
SCCF RECON,ioos:station:SCCF:11:1,2012-12-08T08:00:00Z,26.4679,-82.0631,1.69,30.83,1111122 
SCCF RECON,ioos:station:SCCF:11:1,2012-12-08T09:00:00Z,26.4679,-82.0631,1.731,30.54,1111122 
SCCF RECON,ioos:station:SCCF:11:1,2012-12-08T10:00:00Z,26.4679,-82.0631,1.85,31.06,1111122 
SCCF RECON,ioos:station:SCCF:11:1,2012-12-08T11:00:00Z,26.4679,-82.0631,1.948,30.86,1111122 
SCCF RECON,ioos:station:SCCF:11:1,2012-12-08T12:00:00Z,26.4679,-82.0631,2.01,30.64,1111122 
SCCF RECON,ioos:station:SCCF:11:1,2012-12-08T13:00:00Z,26.4679,-82.0631,2.09,30.52,1111122 
SCCF RECON,ioos:station:SCCF:11:1,2012-12-08T14:00:00Z,26.4679,-82.0631,2.13,30.78,1111122 
SCCF RECON,ioos:station:SCCF:11:1,2012-12-08T15:00:00Z,26.4679,-82.0631,2.11,30.88,1111122 
SCCF RECON,ioos:station:SCCF:11:1,2012-12-08T16:00:00Z,26.4679,-82.0631,2.052,30.79,1111122 
SCCF RECON,ioos:station:SCCF:11:1,2012-12-08T17:00:00Z,26.4679,-82.0631,1.97,30.63,1111122 
SCCF RECON,ioos:station:SCCF:11:1,2012-12-08T18:00:00Z,26.4679,-82.0631,1.91,30.65,1111122 
SCCF RECON,ioos:station:SCCF:11:1,2012-12-08T19:00:00Z,26.4679,-82.0631,1.87,30.7,1111122 
SCCF RECON,ioos:station:SCCF:11:1,2012-12-08T20:00:00Z,26.4679,-82.0631,1.881,30.69,1111122 
SCCF RECON,ioos:station:SCCF:11:1,2012-12-08T21:00:00Z,26.4679,-82.0631,1.98,30.69,1111122 
SCCF RECON,ioos:station:SCCF:11:1,2012-12-08T22:00:00Z,26.4679,-82.0631,2.1,31.18,1111122 
SCCF RECON,ioos:station:SCCF:11:1,2012-12-08T23:00:00Z,26.4679,-82.0631,2.208,31.22,1111122 
SCCF RECON,ioos:station:SCCF:11:1,2012-12-09T00:00:00Z,26.4679,-82.0631,2.27,31.15,1111122 
SCCF RECON,ioos:station:SCCF:11:1,2012-12-09T01:00:00Z,26.4679,-82.0631,2.32,31.06,1111122 
SCCF RECON,ioos:station:SCCF:11:1,2012-12-09T02:00:00Z,26.4679,-82.0631,2.331,31.19,1111122 
SCCF RECON,ioos:station:SCCF:11:1,2012-12-09T03:00:00Z,26.4679,-82.0631,2.301,31.37,1111122 
SCCF RECON,ioos:station:SCCF:11:1,2012-12-09T04:00:00Z,26.4679,-82.0631,2.191,30.71,1111122 
SCCF RECON,ioos:station:SCCF:11:1,2012-12-09T05:00:00Z,26.4679,-82.0631,2.04,30.8,1111122 
SCCF RECON,ioos:station:SCCF:11:1,2012-12-09T06:00:00Z,26.4679,-82.0631,1.913,30.81,1111122 
SCCF RECON,ioos:station:SCCF:11:1,2012-12-09T07:00:00Z,26.4679,-82.0631,1.78,30.84,1111122 
SCCF RECON,ioos:station:SCCF:11:1,2012-12-09T08:00:00Z,26.4679,-82.0631,1.68,30.89,1111122 
SCCF RECON,ioos:station:SCCF:11:1,2012-12-09T09:00:00Z,26.4679,-82.0631,1.64,30.88,1111122 
SCCF RECON,ioos:station:SCCF:11:1,2012-12-09T10:00:00Z,26.4679,-82.0631,1.71,30.87,1111122 
SCCF RECON,ioos:station:SCCF:11:1,2012-12-09T11:00:00Z,26.4679,-82.0631,1.86,31.17,1111122 
SCCF RECON,ioos:station:SCCF:11:1,2012-12-09T12:00:00Z,26.4679,-82.0631,1.98,31.14,1111122 
SCCF RECON,ioos:station:SCCF:11:1,2012-12-09T13:00:00Z,26.4679,-82.0631,2.07,30.47,1111122 
SCCF RECON,ioos:station:SCCF:11:1,2012-12-09T14:00:00Z,26.4679,-82.0631,2.17,31.04,1111122 
SCCF RECON,ioos:station:SCCF:11:1,2012-12-09T15:00:00Z,26.4679,-82.0631,2.22,31.19,1111122 
SCCF RECON,ioos:station:SCCF:11:1,2012-12-09T16:00:00Z,26.4679,-82.0631,2.211,31.16,1111122 
SCCF RECON,ioos:station:SCCF:11:1,2012-12-09T17:00:00Z,26.4679,-82.0631,2.16,31.19,1111122 
SCCF RECON,ioos:station:SCCF:11:1,2012-12-09T18:00:00Z,26.4679,-82.0631,2.066,30.69,1111122 
SCCF RECON,ioos:station:SCCF:11:1,2012-12-09T19:00:00Z,26.4679,-82.0631,1.989,30.67,1111122 
SCCF RECON,ioos:station:SCCF:11:1,2012-12-09T20:00:00Z,26.4679,-82.0631,1.94,30.74,1111122 
SCCF RECON,ioos:station:SCCF:11:1,2012-12-09T21:00:00Z,26.4679,-82.0631,1.95,30.87,1111122 
SCCF RECON,ioos:station:SCCF:11:1,2012-12-09T22:00:00Z,26.4679,-82.0631,2.04,30.91,1111122 
SCCF RECON,ioos:station:SCCF:11:1,2012-12-09T23:00:00Z,26.4679,-82.0631,2.16,30.88,1111122 
SCCF RECON,ioos:station:SCCF:11:1,2012-12-10T00:00:00Z,26.4679,-82.0631,2.27,31.75,1111122 
SCCF RECON,ioos:station:SCCF:11:1,2012-12-10T01:00:00Z,26.4679,-82.0631,2.32,31.62,1111122 
SCCF RECON,ioos:station:SCCF:11:1,2012-12-10T02:00:00Z,26.4679,-82.0631,2.35,31.44,1111122 
SCCF RECON,ioos:station:SCCF:11:1,2012-12-10T03:00:00Z,26.4679,-82.0631,2.35,31.2,1111122 
SCCF RECON,ioos:station:SCCF:11:1,2012-12-10T04:00:00Z,26.4679,-82.0631,2.27,31.18,1111122 
SCCF RECON,ioos:station:SCCF:11:1,2012-12-10T05:00:00Z,26.4679,-82.0631,2.119,30.89,1111122 
SCCF RECON,ioos:station:SCCF:11:1,2012-12-10T06:00:00Z,26.4679,-82.0631,1.96,30.9,1111122 
SCCF RECON,ioos:station:SCCF:11:1,2012-12-10T07:00:00Z,26.4679,-82.0631,1.8,30.91,1111122 
SCCF RECON,ioos:station:SCCF:11:1,2012-12-10T08:00:00Z,26.4679,-82.0631,1.649,30.96,1111122 
SCCF RECON,ioos:station:SCCF:11:1,2012-12-10T09:00:00Z,26.4679,-82.0631,1.52,30.99,1111122 
SCCF RECON,ioos:station:SCCF:11:1,2012-12-10T10:00:00Z,26.4679,-82.0631,1.46,30.99,1111122 
SCCF RECON,ioos:station:SCCF:11:1,2012-12-10T11:00:00Z,26.4679,-82.0631,1.52,30.77,1111122 
SCCF RECON,ioos:station:SCCF:11:1,2012-12-10T12:00:00Z,26.4679,-82.0631,1.68,31.08,1111122 
SCCF RECON,ioos:station:SCCF:11:1,2012-12-10T13:00:00Z,26.4679,-82.0631,1.831,30.71,1111122 
SCCF RECON,ioos:station:SCCF:11:1,2012-12-10T14:00:00Z,26.4679,-82.0631,1.948,30.77,1111122 
SCCF RECON,ioos:station:SCCF:11:1,2012-12-10T15:00:00Z,26.4679,-82.0631,2.05,31.0,1111122 
SCCF RECON,ioos:station:SCCF:11:1,2012-12-10T16:00:00Z,26.4679,-82.0631,2.109,30.96,1111122 
SCCF RECON,ioos:station:SCCF:11:1,2012-12-10T17:00:00Z,26.4679,-82.0631,2.11,31.17,1111122 
SCCF RECON,ioos:station:SCCF:11:1,2012-12-10T18:00:00Z,26.4679,-82.0631,2.09,31.61,1111122 
SCCF RECON,ioos:station:SCCF:11:1,2012-12-10T19:00:00Z,26.4679,-82.0631,2.05,33.17,1111122 
SCCF RECON,ioos:station:SCCF:11:1,2012-12-10T20:00:00Z,26.4679,-82.0631,1.99,32.57,1111122 
SCCF RECON,ioos:station:SCCF:11:1,2012-12-10T21:00:00Z,26.4679,-82.0631,1.97,32.82,1111122 
SCCF RECON,ioos:station:SCCF:11:1,2012-12-10T22:00:00Z,26.4679,-82.0631,1.98,32.95,1111122 
SCCF RECON,ioos:station:SCCF:11:1,2012-12-10T23:00:00Z,26.4679,-82.0631,2.08,33.88,1111122 
SCCF RECON,ioos:station:SCCF:11:1,2012-12-11T00:00:00Z,26.4679,-82.0631,2.21,33.98,1111122 
SCCF RECON,ioos:station:SCCF:11:1,2012-12-11T01:00:00Z,26.4679,-82.0631,2.31,34.13,1111122 
SCCF RECON,ioos:station:SCCF:11:1,2012-12-11T02:00:00Z,26.4679,-82.0631,2.38,34.21,1111122 
SCCF RECON,ioos:station:SCCF:11:1,2012-12-11T03:00:00Z,26.4679,-82.0631,2.39,34.26,1111122 
SCCF RECON,ioos:station:SCCF:11:1,2012-12-11T04:00:00Z,26.4679,-82.0631,2.4,34.25,1111122 
SCCF RECON,ioos:station:SCCF:11:1,2012-12-11T05:00:00Z,26.4679,-82.0631,2.33,34.23,1111122 
SCCF RECON,ioos:station:SCCF:11:1,2012-12-11T06:00:00Z,26.4679,-82.0631,2.161,32.13,1111122 
SCCF RECON,ioos:station:SCCF:11:1,2012-12-11T07:00:00Z,26.4679,-82.0631,1.97,31.94,1111122 
SCCF RECON,ioos:station:SCCF:11:1,2012-12-11T08:00:00Z,26.4679,-82.0631,1.79,31.77,1111122 
SCCF RECON,ioos:station:SCCF:11:1,2012-12-11T09:00:00Z,26.4679,-82.0631,1.64,31.47,1111122 
SCCF RECON,ioos:station:SCCF:11:1,2012-12-11T10:00:00Z,26.4679,-82.0631,1.504,31.31,1111122 
SCCF RECON,ioos:station:SCCF:11:1,2012-12-11T11:00:00Z,26.4679,-82.0631,1.44,31.22,1111122 
SCCF RECON,ioos:station:SCCF:11:1,2012-12-11T12:00:00Z,26.4679,-82.0631,1.501,31.72,1111122 
SCCF RECON,ioos:station:SCCF:11:1,2012-12-11T13:00:00Z,26.4679,-82.0631,1.69,32.92,1111122 
SCCF RECON,ioos:station:SCCF:11:1,2012-12-11T14:00:00Z,26.4679,-82.0631,1.84,32.89,1111122 
SCCF RECON,ioos:station:SCCF:11:1,2012-12-11T15:00:00Z,26.4679,-82.0631,1.97,32.89,1111122 
SCCF RECON,ioos:station:SCCF:11:1,2012-12-11T16:00:00Z,26.4679,-82.0631,2.072,32.99,1111122 
SCCF RECON,ioos:station:SCCF:11:1,2012-12-11T17:00:00Z,26.4679,-82.0631,2.17,33.65,1111122 
SCCF RECON,ioos:station:SCCF:11:1,2012-12-11T18:00:00Z,26.4679,-82.0631,2.18,33.82,1111122 